Tracking 19792 objects as of 16-Jul-2019
HD Live streaming from Space Station
objects crossing your sky now

COSMOS 1823 DEB

Track COSMOS 1823 DEB now!
10-day predictions


NORAD ID: 19006
Int'l Code: 1987-020BB
Perigee: 992.7 km
Apogee: 1,096.6 km
Inclination: 73.4 °
Period: 105.9 minutes
Semi major axis: 7415 km
RCS: 0.0433 m2 (small)
Launch date: February 20, 1987
Source: Commonwealth of Independent States (former USSR) (CIS)
Launch site: PLESETSK MISSILE AND SPACE COMPLEX (PKMTR)

Note: This is SATELLITE DEBRIS
aabbcc
Your satellite tracking list
Your tracking list is empty




NASA's NSSDC Master Catalog

Two Line Element Set (TLE):
1 19006U 87020BB  19196.60825487 +.00004021 +00000-0 +53790-2 0  9992
2 19006 073.4459 060.1035 0070045 084.5237 305.4683 13.59495595497150
Source of the keplerian elements: AFSPC